Location: Cazavet
(43.0017°N, 1.0431°E)
Time: 22:33:36
(UTC+00:00)

USA 234 - Pass Details

Date: 18 January 2026
Orbit: 1102 x 1106 km, 123.0° (Epoch: 4 January)

Event Time Altitude Azimuth Distance (km) Brightness Sun altitude
Rises 06:30:12 0° 50° (NE) 3,932 6.6 -9.6°
Reaches altitude 10° 06:32:44 10° 54° (NE) 2,971 6.0 -9.2°
Maximum altitude 06:39:13 60° 134° (SE) 1,248 3.9 -8.1°
Drops below altitude 10° 06:45:39 10° 214° (SSW) 2,955 5.4 -7.0°
Sets 06:48:10 0° 218° (SW) 3,910 6.0 -6.6°
